,,PA_Meas_PMT16A,,PR_Meas_QMR101_102,,RH_Meas_QMH101,,SR_Meas_QMS101,,TA_Meas_QMH101,,GenWind,,GenWind,
time,status,PA,status,PR,status,RH,status,SR,status,TA,status,DirAvg,status,SpdAvg,
2014-10-15, 00:00:04,VALID,918.658,VALID,0,VALID,97.4044,VALID,0,VALID,20.6585,VALID,73,VALID,0,
2014-10-15, 00:01:04,VALID,918.645,VALID,0,VALID,97.4273,VALID,0,VALID,20.678,VALID,73,VALID,0,
2014-10-15, 00:02:04,VALID,918.667,VALID,0,VALID,97.3968,VALID,0,VALID,20.6975,VALID,73,VALID,0,
2014-10-15, 00:03:04,VALID,918.641,VALID,0,VALID,97.412,VALID,0,VALID,20.6975,VALID,73,VALID,0,
2014-10-15, 00:04:04,VALID,918.638,VALID,0,VALID,97.4196,VALID,0,VALID,20.6975,VALID,73,VALID,0,
2014-10-15, 00:05:04,VALID,918.62,VALID,0,VALID,97.4196,VALID,0,VALID,20.678,VALID,73,VALID,0,
2014-10-15, 00:06:04,VALID,918.661,VALID,0,VALID,97.4196,VALID,0,VALID,20.6569,VALID,73,VALID,0,
2014-10-15, 00:07:04,VALID,918.607,VALID,0,VALID,97.4273,VALID,0,VALID,20.678,VALID,73,VALID,0,
2014-10-15, 00:08:04,VALID,918.602,VALID,0,VALID,97.4501,VALID,0,VALID,20.6585,VALID,73,VALID,0,
2014-10-15, 00:09:04,VALID,918.619,VALID,0,VALID,97.4196,VALID,0,VALID,20.639,VALID,73,VALID,0,
2014-10-15, 00:10:04,VALID,918.62,VALID,0,VALID,97.4349,VALID,0,VALID,20.6194,VALID,73,VALID,0,
2014-10-15, 00:11:04,VALID,918.605,VALID,0,VALID,97.4425,VALID,0,VALID,20.6194,VALID,73,VALID,0,
2014-10-15, 00:12:04,VALID,918.602,VALID,0,VALID,97.4501,VALID,0,VALID,20.5999,VALID,73,VALID,0,
2014-10-15, 00:13:04,VALID,918.559,VALID,0,VALID,97.4425,VALID,0,VALID,20.5804,VALID,73,VALID,0,
2014-10-15, 00:14:04,VALID,918.558,VALID,0,VALID,97.4577,VALID,0,VALID,20.5804,VALID,73,VALID,0,
2014-10-15, 00:15:04,VALID,918.549,VALID,0,VALID,97.4501,VALID,0,VALID,20.5609,VALID,73,VALID,0,
2014-10-15, 00:16:04,VALID,918.572,VALID,0,VALID,97.4425,VALID,0,VALID,20.5804,VALID,73,VALID,0,
2014-10-15, 00:17:04,VALID,918.542,VALID,0,VALID,97.4273,VALID,0,VALID,20.5804,VALID,73,VALID,0,
2014-10-15, 00:18:04,VALID,918.547,VALID,0,VALID,97.4425,VALID,0,VALID,20.5609,VALID,73,VALID,0,
2014-10-15, 00:19:04,VALID,918.525,VALID,0,VALID,97.4501,VALID,0,VALID,20.5609,VALID,73,VALID,0,
2014-10-15, 00:20:04,VALID,918.527,VALID,0,VALID,97.4501,VALID,0,VALID,20.5204,VALID,73,VALID,0,
2014-10-15, 00:21:04,VALID,918.519,VALID,0,VALID,97.4425,VALID,0,VALID,20.5219,VALID,73,VALID,0,
2014-10-15, 00:22:04,VALID,918.517,VALID,0,VALID,97.4501,VALID,0,VALID,20.5414,VALID,73,VALID,0,
2014-10-15, 00:23:04,VALID,918.525,VALID,0,VALID,97.4425,VALID,0,VALID,20.5414,VALID,73,VALID,0,
2014-10-15, 00:24:04,VALID,918.501,VALID,0,VALID,97.4501,VALID,0,VALID,20.5414,VALID,73,VALID,0,
2014-10-15, 00:25:04,VALID,918.488,VALID,0,VALID,97.4577,VALID,0,VALID,20.5414,VALID,73,VALID,0,
2014-10-15, 00:26:04,VALID,918.496,VALID,0,VALID,97.4577,VALID,0,VALID,20.5414,VALID,73,VALID,0,
2014-10-15, 00:27:04,VALID,918.502,VALID,0,VALID,97.4577,VALID,0,VALID,20.5804,VALID,73,VALID,0,
2014-10-15, 00:28:04,VALID,918.478,VALID,0,VALID,97.4425,VALID,0,VALID,20.5804,VALID,73,VALID,0,
2014-10-15, 00:29:04,VALID,918.479,VALID,0,VALID,97.4349,VALID,0,VALID,20.582,VALID,73,VALID,0,
2014-10-15, 00:30:04,VALID,918.47,VALID,0,VALID,97.4501,VALID,0,VALID,20.5609,VALID,73,VALID,0,
2014-10-15, 00:31:04,VALID,918.467,VALID,0,VALID,97.4425,VALID,0,VALID,20.5609,VALID,73,VALID,0,
2014-10-15, 00:32:04,VALID,918.449,VALID,0,VALID,97.4501,VALID,0,VALID,20.5609,VALID,73,VALID,0,
2014-10-15, 00:33:04,VALID,918.422,VALID,0,VALID,97.4501,VALID,0,VALID,20.5609,VALID,73,VALID,0,
2014-10-15, 00:34:04,VALID,918.414,VALID,0,VALID,97.4577,VALID,0,VALID,20.6015,VALID,73,VALID,0,
2014-10-15, 00:35:04,VALID,918.434,VALID,0,VALID,97.4654,VALID,0,VALID,20.5414,VALID,73,VALID,0,
2014-10-15, 00:36:04,VALID,918.427,VALID,0,VALID,97.4501,VALID,0,VALID,20.5609,VALID,73,VALID,0,
2014-10-15, 00:37:04,VALID,918.392,VALID,0,VALID,97.473,VALID,0,VALID,20.5414,VALID,73,VALID,0,
2014-10-15, 00:38:04,VALID,918.395,VALID,0,VALID,97.4577,VALID,0,VALID,20.5219,VALID,73,VALID,0,
2014-10-15, 00:39:04,VALID,918.383,VALID,0,VALID,97.4806,VALID,0,VALID,20.5024,VALID,73,VALID,0,
2014-10-15, 00:40:04,VALID,918.376,VALID,0,VALID,97.4806,VALID,0,VALID,20.4829,VALID,73,VALID,0,
2014-10-15, 00:41:04,VALID,918.363,VALID,0,VALID,97.473,VALID,0,VALID,20.4829,VALID,73,VALID,0,
2014-10-15, 00:42:04,VALID,918.365,VALID,0,VALID,97.4577,VALID,0,VALID,20.4829,VALID,73,VALID,0,
2014-10-15, 00:43:04,VALID,918.294,VALID,0,VALID,97.473,VALID,0,VALID,20.4634,VALID,73,VALID,0,
2014-10-15, 00:44:04,VALID,918.294,VALID,0,VALID,97.4806,VALID,0,VALID,20.4423,VALID,73,VALID,0,
2014-10-15, 00:45:04,VALID,918.284,VALID,0,VALID,97.4654,VALID,0,VALID,20.4829,VALID,73,VALID,0,
2014-10-15, 00:46:04,VALID,918.288,VALID,0,VALID,97.4806,VALID,0,VALID,20.4634,VALID,73,VALID,0,
2014-10-15, 00:47:04,VALID,918.258,VALID,0,VALID,97.4882,VALID,0,VALID,20.4634,VALID,73,VALID,0,
2014-10-15, 00:48:04,VALID,918.249,VALID,0,VALID,97.4654,VALID,0,VALID,20.4634,VALID,73,VALID,0,
2014-10-15, 00:49:04,VALID,918.241,VALID,0,VALID,97.473,VALID,0,VALID,20.4634,VALID,73,VALID,0,
2014-10-15, 00:50:04,VALID,918.247,VALID,0,VALID,97.4806,VALID,0,VALID,20.4439,VALID,73,VALID,0,
2014-10-15, 00:51:04,VALID,918.249,VALID,0,VALID,97.4882,VALID,0,VALID,20.4439,VALID,73,VALID,0,
2014-10-15, 00:52:04,VALID,918.239,VALID,0,VALID,97.4882,VALID,0.107441,VALID,20.4228,VALID,73,VALID,0,
2014-10-15, 00:53:04,VALID,918.23,VALID,0,VALID,97.4882,VALID,0.107441,VALID,20.4228,VALID,73,VALID,0,
2014-10-15, 00:54:04,VALID,918.253,VALID,0,VALID,97.4806,VALID,0.107441,VALID,20.4244,VALID,73,VALID,0,
2014-10-15, 00:55:04,VALID,918.231,VALID,0,VALID,97.4806,VALID,0.107441,VALID,20.4033,VALID,73,VALID,0,
2014-10-15, 00:56:04,VALID,918.228,VALID,0,VALID,97.473,VALID,0.107441,VALID,20.4244,VALID,73,VALID,0,
2014-10-15, 00:57:04,VALID,918.222,VALID,0,VALID,97.4882,VALID,0,VALID,20.4244,VALID,73,VALID,0,
2014-10-15, 00:58:04,VALID,918.238,VALID,0,VALID,97.5035,VALID,0,VALID,20.4033,VALID,73,VALID,0,
2014-10-15, 00:59:04,VALID,918.204,VALID,0,VALID,97.473,VALID,0.107441,VALID,20.4228,VALID,73,VALID,0,
2014-10-15, 01:00:04,VALID,918.219,VALID,0,VALID,97.473,VALID,0,VALID,20.4634,VALID,73,VALID,0,
2014-10-15, 01:01:04,VALID,918.206,VALID,0,VALID,97.4882,VALID,0.107441,VALID,20.4439,VALID,73,VALID,0,
2014-10-15, 01:02:04,VALID,918.186,VALID,0,VALID,97.4806,VALID,0,VALID,20.4228,VALID,73,VALID,0,
2014-10-15, 01:03:04,VALID,918.209,VALID,0,VALID,97.4882,VALID,0.107441,VALID,20.4228,VALID,73,VALID,0,
2014-10-15, 01:04:04,VALID,918.174,VALID,0,VALID,97.4577,VALID,0.107441,VALID,20.4634,VALID,73,VALID,0,
2014-10-15, 01:05:04,VALID,918.177,VALID,0,VALID,97.4654,VALID,0,VALID,20.4634,VALID,73,VALID,0,
2014-10-15, 01:06:04,VALID,918.174,VALID,0,VALID,97.4806,VALID,0,VALID,20.4423,VALID,73,VALID,0,
2014-10-15, 01:07:04,VALID,918.203,VALID,0,VALID,97.5035,VALID,0.107441,VALID,20.4634,VALID,73,VALID,0,
2014-10-15, 01:08:04,VALID,918.163,VALID,0,VALID,97.473,VALID,0,VALID,20.4829,VALID,73,VALID,0,
2014-10-15, 01:09:04,VALID,918.151,VALID,0,VALID,97.473,VALID,0.107441,VALID,20.4829,VALID,73,VALID,0,
2014-10-15, 01:10:04,VALID,918.135,VALID,0,VALID,97.4577,VALID,0,VALID,20.4634,VALID,73,VALID,0,
2014-10-15, 01:11:04,VALID,918.128,VALID,0,VALID,97.4806,VALID,0.107441,VALID,20.4829,VALID,73,VALID,0,
2014-10-15, 01:12:04,VALID,918.148,VALID,0,VALID,97.4654,VALID,0.107441,VALID,20.4813,VALID,73,VALID,0,
2014-10-15, 01:13:04,VALID,918.107,VALID,0,VALID,97.4654,VALID,0,VALID,20.5024,VALID,73,VALID,0,
2014-10-15, 01:14:04,VALID,918.088,VALID,0,VALID,97.4959,VALID,0.107441,VALID,20.5219,VALID,73,VALID,0,
2014-10-15, 01:15:04,VALID,918.099,VALID,0,VALID,97.473,VALID,0,VALID,20.5204,VALID,73,VALID,0,
2014-10-15, 01:16:04,VALID,918.095,VALID,0,VALID,97.4577,VALID,0.107441,VALID,20.5414,VALID,73,VALID,0,
2014-10-15, 01:17:04,VALID,918.09,VALID,0,VALID,97.473,VALID,0.107441,VALID,20.5219,VALID,73,VALID,0,
2014-10-15, 01:18:04,VALID,918.049,VALID,0,VALID,97.4882,VALID,0.107441,VALID,20.5009,VALID,73,VALID,0,
2014-10-15, 01:19:04,VALID,918.067,VALID,0,VALID,97.4882,VALID,0,VALID,20.4813,VALID,73,VALID,0,
2014-10-15, 01:20:04,VALID,918.033,VALID,0,VALID,97.473,VALID,0,VALID,20.5024,VALID,73,VALID,0,
2014-10-15, 01:21:04,VALID,918.058,VALID,0,VALID,97.4654,VALID,0.107441,VALID,20.5024,VALID,73,VALID,0,
2014-10-15, 01:22:04,VALID,918.043,VALID,0,VALID,97.4806,VALID,0,VALID,20.5219,VALID,73,VALID,0,
2014-10-15, 01:23:04,VALID,918.051,VALID,0,VALID,97.4959,VALID,0,VALID,20.4829,VALID,73,VALID,0,
2014-10-15, 01:24:04,VALID,918.053,VALID,0,VALID,97.4882,VALID,0.107441,VALID,20.4813,VALID,73,VALID,0,
2014-10-15, 01:25:04,VALID,918.005,VALID,0,VALID,97.4882,VALID,0.107441,VALID,20.5219,VALID,73,VALID,0,
2014-10-15, 01:26:04,VALID,918.04,VALID,0,VALID,97.4882,VALID,0.107441,VALID,20.4813,VALID,73,VALID,0,
2014-10-15, 01:27:04,VALID,918.031,VALID,0,VALID,97.473,VALID,0.107441,VALID,20.4813,VALID,73,VALID,0,
2014-10-15, 01:28:04,VALID,918.016,VALID,0,VALID,97.4806,VALID,0.107441,VALID,20.5219,VALID,73,VALID,0,
2014-10-15, 01:29:04,VALID,918.035,VALID,0,VALID,97.473,VALID,0,VALID,20.5414,VALID,73,VALID,0,
2014-10-15, 01:30:04,VALID,918.04,VALID,0,VALID,97.4959,VALID,0,VALID,20.4813,VALID,73,VALID,0,
2014-10-15, 01:31:04,VALID,918.01,VALID,0,VALID,97.4959,VALID,0.107441,VALID,20.4618,VALID,73,VALID,0,
2014-10-15, 01:32:04,VALID,918.015,VALID,0,VALID,97.4882,VALID,0.107441,VALID,20.4618,VALID,73,VALID,0,
2014-10-15, 01:33:04,VALID,918.037,VALID,0,VALID,97.4654,VALID,0.107441,VALID,20.4813,VALID,72,VALID,0,
2014-10-15, 01:34:04,VALID,918.037,VALID,0,VALID,97.4959,VALID,0.107441,VALID,20.4829,VALID,73,VALID,0,
2014-10-15, 01:35:04,VALID,918.009,VALID,0,VALID,97.4806,VALID,0.107441,VALID,20.4618,VALID,73,VALID,0,
2014-10-15, 01:36:04,VALID,917.998,VALID,0,VALID,97.473,VALID,0,VALID,20.504,VALID,73,VALID,0,
2014-10-15, 01:37:04,VALID,917.986,VALID,0,VALID,97.4882,VALID,0,VALID,20.465,VALID,73,VALID,0,
2014-10-15, 01:38:04,VALID,917.934,VALID,0,VALID,97.4959,VALID,0,VALID,20.4634,VALID,73,VALID,0,
2014-10-15, 01:39:04,VALID,917.923,VALID,0,VALID,97.5111,VALID,0,VALID,20.465,VALID,73,VALID,0,
2014-10-15, 01:40:04,VALID,917.895,VALID,0,VALID,97.5035,VALID,0,VALID,20.465,VALID,73,VALID,0,
2014-10-15, 01:41:04,VALID,917.909,VALID,0,VALID,97.4959,VALID,0,VALID,20.4439,VALID,73,VALID,0,
2014-10-15, 01:42:04,VALID,917.917,VALID,0,VALID,97.5187,VALID,0,VALID,20.4244,VALID,73,VALID,0,
2014-10-15, 01:43:04,VALID,917.875,VALID,0,VALID,97.5111,VALID,0,VALID,20.4064,VALID,73,VALID,0,
2014-10-15, 01:44:04,VALID,917.87,VALID,0,VALID,97.5035,VALID,0,VALID,20.4064,VALID,73,VALID,0,
2014-10-15, 01:45:04,VALID,917.862,VALID,0,VALID,97.5187,VALID,0,VALID,20.3869,VALID,73,VALID,0,
2014-10-15, 01:46:04,VALID,917.806,VALID,0,VALID,97.5035,VALID,0,VALID,20.3869,VALID,73,VALID,0,
2014-10-15, 01:47:04,VALID,917.818,VALID,0,VALID,97.5035,VALID,0,VALID,20.3674,VALID,73,VALID,0,
2014-10-15, 01:48:04,VALID,917.791,VALID,0,VALID,97.5187,VALID,0,VALID,20.3674,VALID,73,VALID,0,
2014-10-15, 01:49:04,VALID,917.767,VALID,0,VALID,97.5111,VALID,0,VALID,20.3674,VALID,72,VALID,0,
2014-10-15, 01:50:04,VALID,917.77,VALID,0,VALID,97.5111,VALID,0,VALID,20.3674,VALID,73,VALID,0,
2014-10-15, 01:51:04,VALID,917.728,VALID,0,VALID,97.5111,VALID,0,VALID,20.3854,VALID,73,VALID,0,
2014-10-15, 01:52:04,VALID,917.7,VALID,0,VALID,97.5035,VALID,0,VALID,20.3643,VALID,73,VALID,0,
2014-10-15, 01:53:04,VALID,917.701,VALID,0,VALID,97.5264,VALID,0,VALID,20.3659,VALID,73,VALID,0,
2014-10-15, 01:54:04,VALID,917.677,VALID,0,VALID,97.5035,VALID,0,VALID,20.3854,VALID,73,VALID,0,
2014-10-15, 01:55:04,VALID,917.681,VALID,0,VALID,97.5035,VALID,0,VALID,20.3854,VALID,73,VALID,0,
2014-10-15, 01:56:04,VALID,917.704,VALID,0,VALID,97.4882,VALID,0,VALID,20.3659,VALID,73,VALID,0,
2014-10-15, 01:57:04,VALID,917.718,VALID,0,VALID,97.4806,VALID,0,VALID,20.3659,VALID,73,VALID,0,
2014-10-15, 01:58:04,VALID,917.692,VALID,0,VALID,97.5111,VALID,0,VALID,20.3659,VALID,73,VALID,0,
2014-10-15, 01:59:04,VALID,917.698,VALID,0,VALID,97.5111,VALID,0,VALID,20.3464,VALID,73,VALID,0,
2014-10-15, 02:00:04,VALID,917.702,VALID,0,VALID,97.5111,VALID,0,VALID,20.3464,VALID,72,VALID,0,
2014-10-15, 02:01:04,VALID,917.705,VALID,0,VALID,97.5035,VALID,0,VALID,20.3464,VALID,72,VALID,0,
2014-10-15, 02:02:04,VALID,917.727,VALID,0,VALID,97.5187,VALID,0,VALID,20.3464,VALID,73,VALID,0,
2014-10-15, 02:03:04,VALID,917.718,VALID,0,VALID,97.5035,VALID,0,VALID,20.3253,VALID,73,VALID,0,
2014-10-15, 02:04:04,VALID,917.715,VALID,0,VALID,97.5187,VALID,0,VALID,20.3464,VALID,73,VALID,0,
2014-10-15, 02:05:04,VALID,917.697,VALID,0,VALID,97.5264,VALID,0,VALID,20.3464,VALID,73,VALID,0,
2014-10-15, 02:06:04,VALID,917.717,VALID,0,VALID,97.5264,VALID,0,VALID,20.3269,VALID,73,VALID,0,
2014-10-15, 02:07:04,VALID,917.687,VALID,0,VALID,97.5187,VALID,0,VALID,20.3464,VALID,73,VALID,0,
2014-10-15, 02:08:04,VALID,917.667,VALID,0,VALID,97.5111,VALID,0,VALID,20.3464,VALID,73,VALID,0,
2014-10-15, 02:09:04,VALID,917.645,VALID,0,VALID,97.5035,VALID,0.107441,VALID,20.3659,VALID,73,VALID,0,
2014-10-15, 02:10:04,VALID,917.671,VALID,0,VALID,97.5111,VALID,0,VALID,20.3659,VALID,73,VALID,0,
2014-10-15, 02:11:04,VALID,917.64,VALID,0,VALID,97.5111,VALID,0,VALID,20.3659,VALID,73,VALID,0,
2014-10-15, 02:12:04,VALID,917.628,VALID,0,VALID,97.4882,VALID,0,VALID,20.3659,VALID,73,VALID,0,
2014-10-15, 02:13:04,VALID,917.655,VALID,0,VALID,97.5111,VALID,0,VALID,20.3854,VALID,73,VALID,0,
2014-10-15, 02:14:04,VALID,917.674,VALID,0,VALID,97.5264,VALID,0,VALID,20.3659,VALID,73,VALID,0,
2014-10-15, 02:15:04,VALID,917.658,VALID,0,VALID,97.5035,VALID,0,VALID,20.3659,VALID,73,VALID,0,
2014-10-15, 02:16:04,VALID,917.651,VALID,0,VALID,97.5187,VALID,0,VALID,20.3464,VALID,73,VALID,0,
2014-10-15, 02:17:04,VALID,917.634,VALID,0,VALID,97.534,VALID,0,VALID,20.3464,VALID,73,VALID,0,
2014-10-15, 02:18:04,VALID,917.634,VALID,0,VALID,97.5264,VALID,0,VALID,20.3253,VALID,73,VALID,0,
2014-10-15, 02:19:04,VALID,917.637,VALID,0,VALID,97.5264,VALID,0,VALID,20.3269,VALID,72,VALID,0,
2014-10-15, 02:20:04,VALID,917.584,VALID,0,VALID,97.534,VALID,0,VALID,20.3269,VALID,73,VALID,0,
2014-10-15, 02:21:04,VALID,917.586,VALID,0,VALID,97.5187,VALID,0.107441,VALID,20.3253,VALID,73,VALID,0,
2014-10-15, 02:22:04,VALID,917.538,VALID,0,VALID,97.5187,VALID,0,VALID,20.3464,VALID,73,VALID,0,
2014-10-15, 02:23:04,VALID,917.54,VALID,0,VALID,97.5111,VALID,0,VALID,20.3448,VALID,73,VALID,0,
2014-10-15, 02:24:04,VALID,917.534,VALID,0,VALID,97.5111,VALID,0,VALID,20.3269,VALID,73,VALID,0,
2014-10-15, 02:25:04,VALID,917.505,VALID,0,VALID,97.5264,VALID,0,VALID,20.3269,VALID,73,VALID,0,
2014-10-15, 02:26:04,VALID,917.489,VALID,0,VALID,97.5187,VALID,0,VALID,20.3074,VALID,73,VALID,0,
2014-10-15, 02:27:04,VALID,917.483,VALID,0,VALID,97.5111,VALID,0,VALID,20.2668,VALID,73,VALID,0,
2014-10-15, 02:28:04,VALID,917.472,VALID,0,VALID,97.5416,VALID,0.107441,VALID,20.2684,VALID,73,VALID,0,
2014-10-15, 02:29:04,VALID,917.48,VALID,0,VALID,97.5492,VALID,0,VALID,20.2293,VALID,73,VALID,0,
2014-10-15, 02:30:04,VALID,917.421,VALID,0,VALID,97.5492,VALID,0,VALID,20.2083,VALID,73,VALID,0,
2014-10-15, 02:31:04,VALID,917.409,VALID,0,VALID,97.5492,VALID,0.107441,VALID,20.1888,VALID,73,VALID,0,
2014-10-15, 02:32:04,VALID,917.444,VALID,0,VALID,97.5264,VALID,0,VALID,20.2098,VALID,73,VALID,0,
2014-10-15, 02:33:04,VALID,917.416,VALID,0,VALID,97.5416,VALID,0,VALID,20.2098,VALID,73,VALID,0,
2014-10-15, 02:34:04,VALID,917.391,VALID,0,VALID,97.5416,VALID,0,VALID,20.2098,VALID,73,VALID,0,
2014-10-15, 02:35:04,VALID,917.374,VALID,0,VALID,97.5416,VALID,0,VALID,20.1888,VALID,73,VALID,0,
2014-10-15, 02:36:04,VALID,917.345,VALID,0,VALID,97.5492,VALID,0.107441,VALID,20.2098,VALID,73,VALID,0,
2014-10-15, 02:37:04,VALID,917.346,VALID,0,VALID,97.5416,VALID,0,VALID,20.2293,VALID,73,VALID,0,
2014-10-15, 02:38:04,VALID,917.32,VALID,0,VALID,97.534,VALID,0.107441,VALID,20.2293,VALID,73,VALID,0,
2014-10-15, 02:39:04,VALID,917.293,VALID,0,VALID,97.534,VALID,0,VALID,20.2489,VALID,73,VALID,0,
2014-10-15, 02:40:04,VALID,917.315,VALID,0,VALID,97.5492,VALID,0,VALID,20.2684,VALID,73,VALID,0,
2014-10-15, 02:41:04,VALID,917.259,VALID,0,VALID,97.5111,VALID,0.107441,VALID,20.2489,VALID,72,VALID,0,
2014-10-15, 02:42:04,VALID,917.272,VALID,0,VALID,97.5492,VALID,0.107441,VALID,20.2489,VALID,73,VALID,0,
2014-10-15, 02:43:04,VALID,917.257,VALID,0,VALID,97.5264,VALID,0,VALID,20.2293,VALID,73,VALID,0,
2014-10-15, 02:44:04,VALID,917.274,VALID,0,VALID,97.534,VALID,0,VALID,20.2489,VALID,72,VALID,0,
2014-10-15, 02:45:04,VALID,917.263,VALID,0,VALID,97.534,VALID,0,VALID,20.2278,VALID,73,VALID,0,
2014-10-15, 02:46:04,VALID,917.251,VALID,0,VALID,97.5416,VALID,0,VALID,20.2879,VALID,73,VALID,0,
2014-10-15, 02:47:04,VALID,917.243,VALID,0,VALID,97.534,VALID,0,VALID,20.2684,VALID,73,VALID,0,
2014-10-15, 02:48:04,VALID,917.281,VALID,0,VALID,97.5264,VALID,0,VALID,20.2879,VALID,73,VALID,0,
2014-10-15, 02:49:04,VALID,917.259,VALID,0,VALID,97.5264,VALID,0.107441,VALID,20.2668,VALID,73,VALID,0,
2014-10-15, 02:50:04,VALID,917.267,VALID,0,VALID,97.534,VALID,0.107441,VALID,20.2879,VALID,73,VALID,0,
2014-10-15, 02:51:04,VALID,917.265,VALID,0,VALID,97.5264,VALID,0,VALID,20.2879,VALID,73,VALID,0,
2014-10-15, 02:52:04,VALID,917.24,VALID,0,VALID,97.5569,VALID,0.107441,VALID,20.2684,VALID,73,VALID,0,
2014-10-15, 02:53:04,VALID,917.229,VALID,0,VALID,97.534,VALID,0,VALID,20.2668,VALID,73,VALID,0,
2014-10-15, 02:54:04,VALID,917.256,VALID,0,VALID,97.534,VALID,0,VALID,20.2879,VALID,73,VALID,0,
2014-10-15, 02:55:04,VALID,917.229,VALID,0,VALID,97.5492,VALID,0,VALID,20.2879,VALID,73,VALID,0,
2014-10-15, 02:56:04,VALID,917.222,VALID,0,VALID,97.534,VALID,0,VALID,20.2879,VALID,73,VALID,0,
2014-10-15, 02:57:04,VALID,917.199,VALID,0,VALID,97.5111,VALID,0.107441,VALID,20.2668,VALID,73,VALID,0,
2014-10-15, 02:58:04,VALID,917.204,VALID,0,VALID,97.5569,VALID,0,VALID,20.2879,VALID,73,VALID,0,
2014-10-15, 02:59:04,VALID,917.22,VALID,0,VALID,97.5264,VALID,0.107441,VALID,20.2684,VALID,73,VALID,0,
2014-10-15, 03:00:04,VALID,917.211,VALID,0,VALID,97.5569,VALID,0.107441,VALID,20.2489,VALID,73,VALID,0,
2014-10-15, 03:01:04,VALID,917.215,VALID,0,VALID,97.5416,VALID,0,VALID,20.2278,VALID,73,VALID,0,
2014-10-15, 03:02:04,VALID,917.178,VALID,0,VALID,97.5416,VALID,0,VALID,20.2293,VALID,73,VALID,0,
2014-10-15, 03:03:04,VALID,917.211,VALID,0,VALID,97.5492,VALID,0.107441,VALID,20.2489,VALID,73,VALID,0,
2014-10-15, 03:04:04,VALID,917.189,VALID,0,VALID,97.534,VALID,0,VALID,20.2293,VALID,73,VALID,0,
2014-10-15, 03:05:04,VALID,917.203,VALID,0,VALID,97.5416,VALID,0,VALID,20.2293,VALID,73,VALID,0,
2014-10-15, 03:06:04,VALID,917.219,VALID,0,VALID,97.5416,VALID,0,VALID,20.2293,VALID,73,VALID,0,
2014-10-15, 03:07:04,VALID,917.212,VALID,0,VALID,97.5645,VALID,0,VALID,20.2293,VALID,73,VALID,0,
2014-10-15, 03:08:04,VALID,917.178,VALID,0,VALID,97.5416,VALID,0,VALID,20.2083,VALID,73,VALID,0,
2014-10-15, 03:09:04,VALID,917.193,VALID,0,VALID,97.5492,VALID,0,VALID,20.2293,VALID,72,VALID,0,
2014-10-15, 03:10:04,VALID,917.193,VALID,0,VALID,97.5416,VALID,0.107441,VALID,20.2083,VALID,73,VALID,0,
2014-10-15, 03:11:04,VALID,917.216,VALID,0,VALID,97.5416,VALID,0,VALID,20.2489,VALID,73,VALID,0,
2014-10-15, 03:12:04,VALID,917.208,VALID,0,VALID,97.5416,VALID,0.107441,VALID,20.2489,VALID,73,VALID,0,
2014-10-15, 03:13:04,VALID,917.196,VALID,0,VALID,97.5492,VALID,0,VALID,20.2684,VALID,73,VALID,0,
2014-10-15, 03:14:04,VALID,917.197,VALID,0,VALID,97.534,VALID,0,VALID,20.2684,VALID,73,VALID,0,
2014-10-15, 03:15:04,VALID,917.202,VALID,0,VALID,97.5264,VALID,0,VALID,20.2879,VALID,73,VALID,0,
2014-10-15, 03:16:04,VALID,917.182,VALID,0,VALID,97.534,VALID,0.107441,VALID,20.3074,VALID,73,VALID,0,
2014-10-15, 03:17:04,VALID,917.176,VALID,0,VALID,97.5187,VALID,0.107441,VALID,20.2879,VALID,73,VALID,0,
2014-10-15, 03:18:04,VALID,917.17,VALID,0,VALID,97.5416,VALID,0,VALID,20.2668,VALID,73,VALID,0,
2014-10-15, 03:19:04,VALID,917.171,VALID,0,VALID,97.534,VALID,0.107441,VALID,20.3074,VALID,73,VALID,0,
2014-10-15, 03:20:04,VALID,917.187,VALID,0,VALID,97.5111,VALID,0.107441,VALID,20.2863,VALID,73,VALID,0,
2014-10-15, 03:21:04,VALID,917.178,VALID,0,VALID,97.5264,VALID,0.107441,VALID,20.2863,VALID,73,VALID,0,
2014-10-15, 03:22:04,VALID,917.19,VALID,0,VALID,97.534,VALID,0.107441,VALID,20.2863,VALID,73,VALID,0,
2014-10-15, 03:23:04,VALID,917.177,VALID,0,VALID,97.5416,VALID,0.107441,VALID,20.2684,VALID,73,VALID,0,
2014-10-15, 03:24:04,VALID,917.154,VALID,0,VALID,97.5492,VALID,0.107441,VALID,20.2684,VALID,73,VALID,0,
2014-10-15, 03:25:04,VALID,917.146,VALID,0,VALID,97.5569,VALID,0.107441,VALID,20.2489,VALID,73,VALID,0,
2014-10-15, 03:26:04,VALID,917.156,VALID,0,VALID,97.5645,VALID,0,VALID,20.2489,VALID,73,VALID,0,
2014-10-15, 03:27:04,VALID,917.121,VALID,0,VALID,97.5645,VALID,0.107441,VALID,20.2278,VALID,73,VALID,0,
2014-10-15, 03:28:04,VALID,917.135,VALID,0,VALID,97.5492,VALID,0,VALID,20.2489,VALID,73,VALID,0,
2014-10-15, 03:29:04,VALID,917.142,VALID,0,VALID,97.5645,VALID,0,VALID,20.2293,VALID,73,VALID,0,
2014-10-15, 03:30:04,VALID,917.113,VALID,0,VALID,97.5492,VALID,0,VALID,20.2098,VALID,73,VALID,0,
2014-10-15, 03:31:04,VALID,917.13,VALID,0,VALID,97.5645,VALID,0,VALID,20.1903,VALID,72,VALID,0,
2014-10-15, 03:32:04,VALID,917.101,VALID,0,VALID,97.5569,VALID,0,VALID,20.1903,VALID,72,VALID,0,
2014-10-15, 03:33:04,VALID,917.109,VALID,0,VALID,97.5569,VALID,0,VALID,20.1708,VALID,73,VALID,0,
2014-10-15, 03:34:04,VALID,917.089,VALID,0,VALID,97.5569,VALID,0,VALID,20.2098,VALID,72,VALID,0,
2014-10-15, 03:35:04,VALID,917.088,VALID,0,VALID,97.5492,VALID,0.107441,VALID,20.2098,VALID,73,VALID,0,
2014-10-15, 03:36:04,VALID,917.088,VALID,0,VALID,97.5416,VALID,0,VALID,20.2083,VALID,73,VALID,0,
2014-10-15, 03:37:04,VALID,917.076,VALID,0,VALID,97.5569,VALID,0,VALID,20.2489,VALID,73,VALID,0,
2014-10-15, 03:38:04,VALID,917.056,VALID,0,VALID,97.5645,VALID,0,VALID,20.2489,VALID,72,VALID,0,
2014-10-15, 03:39:04,VALID,917.069,VALID,0,VALID,97.5492,VALID,0,VALID,20.2684,VALID,73,VALID,0,
2014-10-15, 03:40:04,VALID,917.092,VALID,0,VALID,97.5569,VALID,0,VALID,20.2684,VALID,72,VALID,0,
2014-10-15, 03:41:04,VALID,917.11,VALID,0,VALID,97.534,VALID,0,VALID,20.2684,VALID,73,VALID,0,
2014-10-15, 03:42:04,VALID,917.095,VALID,0,VALID,97.5721,VALID,0,VALID,20.2278,VALID,73,VALID,0,
2014-10-15, 03:43:04,VALID,917.083,VALID,0,VALID,97.5645,VALID,0,VALID,20.2489,VALID,73,VALID,0,
2014-10-15, 03:44:04,VALID,917.1,VALID,0,VALID,97.5721,VALID,0,VALID,20.2083,VALID,73,VALID,0,
2014-10-15, 03:45:04,VALID,917.102,VALID,0,VALID,97.5873,VALID,0,VALID,20.2098,VALID,72,VALID,0,
2014-10-15, 03:46:04,VALID,917.104,VALID,0,VALID,97.5492,VALID,0,VALID,20.1903,VALID,73,VALID,0,
2014-10-15, 03:47:04,VALID,917.109,VALID,0,VALID,97.5721,VALID,0,VALID,20.1903,VALID,73,VALID,0,
2014-10-15, 03:48:04,VALID,917.142,VALID,0,VALID,97.5797,VALID,0.107441,VALID,20.1708,VALID,73,VALID,0,
2014-10-15, 03:49:04,VALID,917.111,VALID,0,VALID,97.5569,VALID,0,VALID,20.1498,VALID,73,VALID,0,
2014-10-15, 03:50:04,VALID,917.137,VALID,0,VALID,97.5721,VALID,0,VALID,20.1708,VALID,73,VALID,0,
2014-10-15, 03:51:04,VALID,917.103,VALID,0,VALID,97.5721,VALID,0,VALID,20.1708,VALID,73,VALID,0,
2014-10-15, 03:52:04,VALID,917.104,VALID,0,VALID,97.5797,VALID,0,VALID,20.1513,VALID,73,VALID,0,
2014-10-15, 03:53:04,VALID,917.083,VALID,0,VALID,97.5721,VALID,0,VALID,20.1513,VALID,73,VALID,0,
2014-10-15, 03:54:04,VALID,917.076,VALID,0,VALID,97.5645,VALID,0.107441,VALID,20.1708,VALID,73,VALID,0,
2014-10-15, 03:55:04,VALID,917.07,VALID,0,VALID,97.5873,VALID,0,VALID,20.1303,VALID,73,VALID,0,
2014-10-15, 03:56:04,VALID,917.106,VALID,0,VALID,97.5797,VALID,0,VALID,20.1513,VALID,73,VALID,0,
2014-10-15, 03:57:04,VALID,917.09,VALID,0,VALID,97.5797,VALID,0,VALID,20.1513,VALID,73,VALID,0,
2014-10-15, 03:58:04,VALID,917.087,VALID,0,VALID,97.5645,VALID,0.107441,VALID,20.1108,VALID,73,VALID,0,